STARLINK-5551 (56359 NORAD) Tracking and Keplerian Element Data

This shows tracking and keplerian element data for the satellite.

Feedback or suggestion? Click here.




ElementValue
Catalog56359
NameSTARLINK-5551
Epoch Orbit181
Epoch Day127.00001157
Epoch Year2023
RAAN126.4762
Inclination97.6649
Eccentricity0.0001436
Argument of Perigee87.1213
Mean Anonmoly247.2206
Mean Motion15.68318489
Decay Rate-0.00871093
L11 56359U 23058AU 23127.00001157 -.00871093 00000+0 -86412-2 0 9997
L22 56359 97.6649 126.4762 0001436 87.1213 247.2206 15.68318489 1811



Live tracking and technical data element details for STARLINK-5551 (NORAD 56359). STARLINK-5551 can be tracked NOW for your location showing map with azimuth and elevation plus other details from your city location.







IsCatalogInMostPopularTable: catalog: 56359, numindb: 4
Update: records affected: 1



GetName: 56359 STARLINK-5551

Hit Count: updated at: Wed, 07 Jun 2023 08:12:20 GMT